Location: Newark
(52.1752°N, 10.4140°W)
Time: 16:11:08
(UTC+00:00)

N. Korean satellite - Pass Details

Date: 23 November 2019
Orbit: 456 x 506 km, 97.2° (Epoch: 09 December)

Event Time Altitude Azimuth Distance (km) Brightness Sun altitude
Rises 07:31:09 0° 5° (N) 2,620 10.1 -6.7°
Reaches altitude 10° 07:33:24 10° 355° (N) 1,725 9.1 -6.4°
Maximum altitude 07:36:42 31° 293° (WNW) 905 7.4 -6.0°
Drops below altitude 10° 07:39:56 10° 230° (SW) 1,693 9.1 -5.5°
Sets 07:42:08 0° 220° (SW) 2,562 10.1 -5.2°
